Location: George Washington National Forest Helicopter Landing Site
(38.6463°N, 79.0851°W)
Time: 18:59:55
(UTC-04:00)

Transit 2A - All Passes

Search period start: 24 August 2019 00:00
Search period end: 03 September 2019 00:00
Orbit: 597 x 962 km, 66.7° (Epoch: 23 August)

Date Brightness Start Highest point End Pass type
(mag) Time Alt. Az. Time Alt. Az. Time Alt. Az.
24 Aug - 09:40:18 10° SSW 09:46:24 60° ESE 09:52:06 10° NE daylight
24 Aug - 11:25:09 10° WSW 11:29:56 24° NW 11:34:28 10° N daylight
24 Aug - 18:29:51 10° N 18:34:04 30° NE 18:37:59 10° ESE daylight
24 Aug - 20:13:17 10° NW 20:17:02 25° WSW 20:20:35 10° SSW daylight
25 Aug - 09:06:35 10° S 09:12:21 42° ESE 09:17:46 10° NE daylight
25 Aug - 10:50:14 10° WSW 10:55:39 32° NW 11:00:43 10° N daylight
25 Aug - 17:56:08 10° N 17:59:44 21° NE 18:03:10 10° E daylight
25 Aug - 19:38:46 10° NW 19:43:05 39° WSW 19:47:08 10° S daylight
26 Aug - 08:33:09 10° SSE 08:38:21 29° ESE 08:43:17 10° NE daylight
26 Aug - 10:15:34 10° SW 10:21:24 45° WNW 10:26:51 10° NNE daylight
26 Aug - 17:22:39 10° N 17:25:22 15° NE 17:27:57 10° E daylight
26 Aug - 19:04:28 10° NW 19:09:05 64° WSW 19:13:22 10° SSE daylight
27 Aug - 08:00:07 10° SSE 08:04:24 20° ESE 08:08:30 10° ENE daylight
27 Aug - 09:41:08 10° SW 09:47:14 63° WNW 09:52:53 10° NNE daylight
27 Aug - 11:29:19 10° WNW 11:31:25 12° NW 11:33:29 10° NNW daylight
27 Aug - 16:50:02 10° NNE 16:50:54 10° NE 16:51:46 10° NE daylight
27 Aug - 18:30:19 10° NNW 18:35:00 80° ENE 18:39:22 10° SSE daylight
28 Aug - 07:27:50 10° SE 07:30:30 13° ESE 07:33:06 10° ENE daylight
28 Aug - 09:06:54 10° SSW 09:13:06 89° WNW 09:18:50 10° NNE daylight
28 Aug - 10:53:22 10° W 10:56:58 16° NW 11:00:25 10° N daylight
28 Aug - 17:56:18 10° NNW 18:00:51 50° ENE 18:05:06 10° SE daylight
28 Aug - 19:41:05 10° WNW 19:43:24 14° WSW 19:45:40 10° SW daylight
29 Aug - 08:32:54 10° SSW 08:39:00 65° ESE 08:44:40 10° NE daylight
29 Aug - 10:18:02 10° W 10:22:36 22° NW 10:26:54 10° N daylight
29 Aug - 17:22:23 10° N 17:26:38 33° NE 17:30:36 10° ESE daylight
29 Aug - 19:06:00 10° WNW 19:09:32 22° WSW 19:12:54 10° SSW daylight
30 Aug - 07:59:08 10° S 08:04:57 45° ESE 08:10:23 10° NE daylight
30 Aug - 09:43:03 10° WSW 09:48:17 30° NW 09:53:11 10° N daylight
30 Aug - 16:48:38 10° N 16:52:20 22° NE 16:55:50 10° ESE daylight
30 Aug - 18:31:25 10° NW 18:35:35 35° WSW 18:39:33 10° S daylight
31 Aug - 07:25:38 10° S 07:30:57 31° ESE 07:35:56 10° NE daylight
31 Aug - 09:08:19 10° SW 09:14:02 41° NW 09:19:21 10° NNE daylight
31 Aug - 16:15:06 10° N 16:17:59 16° NE 16:20:43 10° E daylight
31 Aug - 17:57:04 10° NW 18:01:36 58° WSW 18:05:50 10° SSE daylight
01 Sep - 06:52:31 10° SSE 06:56:59 21° ESE 07:01:15 10° ENE daylight
01 Sep - 08:33:50 10° SW 08:39:51 58° WNW 08:45:25 10° NNE daylight
01 Sep - 10:22:42 10° NW 10:24:06 11° NW 10:25:28 10° NNW daylight
01 Sep - 15:42:12 10° NNE 15:43:32 11° NE 15:44:51 10° ENE daylight
01 Sep - 17:22:54 10° NNW 17:27:32 87° ENE 17:31:52 10° SSE daylight
02 Sep - 06:20:01 10° SE 06:23:04 14° ESE 06:26:01 10° ENE visible
02 Sep - 07:59:33 10° SSW 08:05:43 83° WNW 08:11:23 10° NNE daylight
02 Sep - 09:46:23 10° W 09:49:38 15° NW 09:52:45 10° N daylight
02 Sep - 16:48:51 10° NNW 16:53:25 55° ENE 16:57:40 10° SE daylight
02 Sep - 18:34:03 10° W 18:35:53 12° WSW 18:37:43 10° SW daylight
